Simultaneous Nadir Overpasses (SNOs) Predictions

Prediction of SNOs between METOP-B and NOAA-19 Satellite Orbit:

Table of predicted SNOs for the next 14.0 days since TLE Epoch: 8/8/2014
Index Date (METOP-B) Time (METOP-B) Lat,Lon (METOP-B) SZA (METOP-B ) Date (NOAA-19) Time (NOAA-19) Lat,Lon (NOAA-19) SZA (NOAA-19 ) Distance(km) Time Diff (sec)
1 08/14/2014 09:25:38 74.36, 34.22 60.03 08/14/2014 09:24:25 74.40, 33.32 60.11 27.32 73
2 08/14/2014 10:16:23 -74.19,-158.90 120.13 08/14/2014 10:15:25 -74.18,-158.87 120.12 0.91 58
3 08/14/2014 11:07:02 74.19, 8.45 59.89 08/14/2014 11:06:23 74.18, 8.38 59.89 2.47 39
4 08/14/2014 11:57:45 -74.16, 175.71 120.12 08/14/2014 11:57:28 -74.16, 175.67 120.13 1.39 17
5 08/14/2014 12:48:25 74.12, -17.06 59.85 08/14/2014 12:48:26 74.16, -17.07 59.89 3.91 1
6 08/14/2014 13:39:07 -74.14, 150.32 120.12 08/14/2014 13:39:31 -74.13, 150.22 120.13 3.08 24
7 08/14/2014 14:29:47 74.10, -42.45 59.85 08/14/2014 14:30:28 74.08, -42.39 59.83 2.66 41
8 08/14/2014 15:20:30 -74.07, 124.80 120.16 08/14/2014 15:21:33 -74.06, 124.90 120.19 3.27 63
9 08/14/2014 16:11:15 73.78, -68.57 59.58 08/14/2014 16:12:26 73.82, -67.23 59.57 41.68 71




NCC Satellite Simultaneous Nadir Overpasses (SNOs) Prediction Service
